SVFLIR Weather Reports


Display with metric or nautical units.
time (UTC)temp
F
wind
direction
speed
MPH
gust
MPH
rain 1hr
in
rain 24hr
in
rain mn
in
humidity
%
barometer
mb
20260502214104 89 219 6.0 13.0 0.00 0.00 0.00 100 1009.4
20260502213823 91 196 9.0 16.0 0.00 0.00 0.00 100 1009.4
20260502213102 89 271 8.0 17.0 0.00 0.00 0.00 100 1009.4
20260502212602 90 275 10.0 17.0 0.00 0.00 0.00 100 1009.4
20260502212101 90 232 6.0 17.0 0.00 0.00 0.00 100 1009.4
20260502211601 90 244 7.0 11.0 0.00 0.00 0.00 100 1009.4
20260502211327 89 170 5.0 14.0 0.00 0.00 0.00 100 1009.4
20260502210600 89 14 1.0 15.0 0.00 0.00 0.00 100 1009.4
20260502210052 90 163 8.0 15.0 0.00 0.00 0.00 100 1009.4
20260502205550 91 135 5.0 15.0 0.00 0.00 0.00 100 1009.4
20260502205050 90 327 0.0 17.0 0.00 0.00 0.00 100 1009.4
20260502204806 88 94 10.0 22.0 0.00 0.00 0.00 100 1009.4
20260502204038 87 191 10.0 22.0 0.00 0.00 0.00 100 1009.4
20260502203756 88 157 11.0 21.0 0.00 0.00 0.00 100 1009.4
20260502203037 88 165 7.0 15.0 0.00 0.00 0.00 100 1009.4
20260502202537 89 147 0.0 15.0 0.00 0.00 0.00 100 1009.4
20260502202036 88 156 10.0 15.0 0.00 0.00 0.00 100 1009.4
20260502201536 89 236 8.0 17.0 0.00 0.00 0.00 100 1009.4
20260502201035 89 206 5.0 17.0 0.00 0.00 0.00 100 1009.4
20260502200534 88 212 11.0 17.0 0.00 0.00 0.00 100 1009.4
20260502200034 89 212 11.0 17.0 0.00 0.00 0.00 100 1009.4
20260502195533 90 199 8.0 17.0 0.00 0.00 0.00 100 1009.4
20260502195258 89 225 10.0 17.0 0.00 0.00 0.00 100 1009.4
20260502194532 87 164 8.0 19.0 0.00 0.00 0.00 100 1009.4
20260502194031 90 164 5.0 19.0 0.00 0.00 0.00 100 1009.4
20260502193530 88 158 12.0 19.0 0.00 0.00 0.00 100 1009.4
20260502193030 88 247 9.0 19.0 0.00 0.00 0.00 100 1009.4
20260502192746 88 215 11.0 19.0 0.00 0.00 0.00 100 1009.4
20260502192029 88 167 10.0 17.0 0.00 0.00 0.00 100 1009.4
20260502191027 83 168 6.0 14.0 0.00 0.00 0.00 100 1009.4
20260502190525 84 208 6.0 16.0 0.00 0.00 0.00 100 1009.4
20260502190024 86 171 8.0 18.0 0.00 0.00 0.00 100 1009.4
20260502185523 87 160 8.0 18.0 0.00 0.00 0.00 100 1009.4
20260502185022 87 171 10.0 18.0 0.00 0.00 0.00 100 1009.4
20260502184523 86 137 0.0 16.0 0.00 0.00 0.00 100 1009.4
20260502184022 85 85 2.0 16.0 0.00 0.00 0.00 100 1009.4
20260502183745 86 119 11.0 15.0 0.00 0.00 0.00 100 1009.4
20260502183246 86 171 6.0 11.0 0.00 0.00 0.00 100 1009.4
20260502182520 87 95 4.0 13.0 0.00 0.00 0.00 100 1009.4
20260502182243 86 39 6.0 13.0 0.00 0.00 0.00 100 1009.4
20260502181519 85 119 9.0 14.0 0.00 0.00 0.00 100 1009.4
20260502181018 86 254 5.0 16.0 0.00 0.00 0.00 100 1009.4
20260502180517 85 227 6.0 16.0 0.00 0.00 0.00 100 1009.4
20260502170509 83 156 0.0 10.0 0.00 0.00 0.00 100 1009.4
20260502164005 82 180 6.0 11.0 0.00 0.00 0.00 100 1009.4
20260502163504 83 225 5.0 10.0 0.00 0.00 0.00 100 1009.4
20260502163222 83 195 6.0 11.0 0.00 0.00 0.00 100 1009.4
20260502162504 82 187 3.0 11.0 0.00 0.00 0.00 100 1009.4
20260502162003 81 125 6.0 11.0 0.00 0.00 0.00 100 1009.4
20260502161502 81 98 2.0 11.0 0.00 0.00 0.00 100 1009.4
20260502160951 81 226 6.0 13.0 0.00 0.00 0.00 100 1009.4
20260502160451 81 187 7.0 13.0 0.00 0.00 0.00 100 1009.4
20260502151943 79 165 7.0 13.0 0.00 0.00 0.00 100 1009.4
20260502151703 79 116 7.0 15.0 0.00 0.00 0.00 100 1009.4
20260502150442 79 91 9.0 16.0 0.00 0.00 0.00 100 1009.4
20260502130358 67 12 0.0 5.0 0.00 0.00 0.00 100 1009.4
20260502123809 65 258 0.0 5.0 0.00 0.00 0.00 100 1009.4
20260502123530 65 315 0.0 6.0 0.00 0.00 0.00 100 1009.4
20260502122801 67 317 4.0 7.0 0.00 0.00 0.00 100 1009.4
20260502122519 67 345 5.0 8.0 0.00 0.00 0.00 100 1009.4
20260502121759 67 324 5.0 9.0 0.00 0.00 0.00 100 1009.4
20260502121300 66 278 7.0 9.0 0.00 0.00 0.00 100 1009.4
20260502120519 69 105 4.0 10.0 0.00 0.00 0.00 100 1009.4
20260502115257 71 78 8.0 14.0 0.00 0.00 0.00 100 1009.4
20260502114757 71 57 10.0 14.0 0.00 0.00 0.00 100 1009.4
20260502114256 70 52 9.0 13.0 0.00 0.00 0.00 100 1009.4
20260502113755 70 49 9.0 13.0 0.00 0.00 0.00 100 1009.4
20260502113255 70 52 9.0 14.0 0.00 0.00 0.00 100 1009.4
20260502112754 71 67 10.0 14.0 0.00 0.00 0.00 100 1009.4
20260502112254 71 46 11.0 16.0 0.00 0.00 0.00 100 1009.4
20260502112014 71 52 10.0 16.0 0.00 0.00 0.00 100 1009.4
20260502111514 69 68 10.0 15.0 0.00 0.00 0.00 100 1009.4
20260502110751 68 46 9.0 11.0 0.00 0.00 0.00 100 1009.4
20260502110252 67 52 6.0 9.0 0.00 0.00 0.00 100 1009.4
20260502105751 67 63 4.0 7.0 0.00 0.00 0.00 100 1009.4
20260502105250 68 358 5.0 10.0 0.00 0.00 0.00 100 1009.4
20260502104248 71 21 8.0 16.0 0.00 0.00 0.00 100 1009.4
20260502103749 71 43 10.0 16.0 0.00 0.00 0.00 100 1009.4
20260502103248 71 33 9.0 15.0 0.00 0.00 0.00 100 1009.4
20260502102747 71 61 12.0 15.0 0.00 0.00 0.00 100 1009.4
20260502102246 70 59 11.0 13.0 0.00 0.00 0.00 100 1009.4
20260502101746 70 30 8.0 12.0 0.00 0.00 0.00 100 1009.4
20260502101245 69 23 8.0 11.0 0.00 0.00 0.00 100 1009.4
20260502100744 70 21 6.0 10.0 0.00 0.00 0.00 100 1009.4
20260502100245 70 23 9.0 10.0 0.00 0.00 0.00 100 1009.4
20260502091238 69 358 5.0 9.0 0.00 0.00 0.00 100 1009.4
20260502090737 70 32 5.0 9.0 0.00 0.00 0.00 100 1009.4
20260502090236 71 46 7.0 9.0 0.00 0.00 0.00 100 1009.4
20260502071443 69 53 10.0 11.0 0.00 0.00 0.00 100 1009.4
20260502070943 67 16 6.0 10.0 0.00 0.00 0.00 100 1009.4
20260502070223 67 4 7.0 10.0 0.00 0.00 0.00 100 1009.4
20260502065722 65 4 4.0 8.0 0.00 0.00 0.00 100 1009.4
20260502065221 65 30 5.0 8.0 0.00 0.00 0.00 100 1009.4
20260502064720 65 358 5.0 8.0 0.00 0.00 0.00 100 1009.4
20260502064220 65 348 6.0 6.0 0.00 0.00 0.00 100 1009.4
20260502063719 65 333 0.0 4.0 0.00 0.00 0.00 100 1009.4
20260502063216 66 333 0.0 5.0 0.00 0.00 0.00 100 1009.4
20260502062712 66 68 2.0 5.0 0.00 0.00 0.00 100 1009.4
20260502062205 66 88 4.0 5.0 0.00 0.00 0.00 100 1009.4
20260502061925 66 295 0.0 6.0 0.00 0.00 0.00 100 1009.4
20260502061202 67 295 0.0 6.0 0.00 0.00 0.00 100 1009.4
20260502060649 67 2 0.0 6.0 0.00 0.00 0.00 100 1009.4
20260502060147 68 330 4.0 6.0 0.00 0.00 0.00 100 1009.4
20260502055645 70 123 0.0 0.0 0.00 0.00 0.00 100 1009.4
20260502055123 70 123 0.0 5.0 0.00 0.00 0.00 100 1009.4
20260502054556 71 123 0.0 7.0 0.00 0.00 0.00 100 1009.4
20260502054047 73 139 3.0 8.0 0.00 0.00 0.00 100 1009.4
20260502053547 73 133 5.0 8.0 0.00 0.00 0.00 100 1009.4
20260502053046 74 133 6.0 8.0 0.00 0.00 0.00 100 1009.4
20260502052807 74 132 5.0 7.0 0.00 0.00 0.00 100 1009.4
20260502052045 74 127 5.0 7.0 0.00 0.00 0.00 100 1009.4
20260502051544 74 135 4.0 7.0 0.00 0.00 0.00 100 1009.4
20260502050543 74 133 6.0 8.0 0.00 0.00 0.00 100 1009.4
20260502050303 74 123 6.0 8.0 0.00 0.00 0.00 100 1009.4
20260502045542 73 118 6.0 8.0 0.00 0.00 0.00 100 1009.4
20260502045041 73 122 6.0 8.0 0.00 0.00 0.00 100 1009.4
20260502044540 73 122 6.0 8.0 0.00 0.00 0.00 100 1009.4
20260502044039 73 130 6.0 8.0 0.00 0.00 0.00 100 1009.4
20260502043540 74 126 6.0 8.0 0.00 0.00 0.00 100 1009.4
20260502042538 72 142 6.0 6.0 0.00 0.00 0.00 100 1009.4
20260502042037 71 149 4.0 4.0 0.00 0.00 0.00 100 1009.4
20260502041537 71 140 0.0 4.0 0.00 0.00 0.00 100 1009.4
20260502041030 71 158 2.0 4.0 0.00 0.00 0.00 100 1009.4
20260502040529 71 177 0.0 0.0 0.00 0.00 0.00 100 1009.4
20260502035958 71 177 0.0 0.0 0.00 0.00 0.00 100 1009.4
20260502035446 71 177 0.0 0.0 0.00 0.00 0.00 100 1009.4
20260502034943 72 177 0.0 0.0 0.00 0.00 0.00 100 1009.4
20260502034428 73 177 0.0 0.0 0.00 0.00 0.00 100 1009.4
20260502033922 74 177 0.0 0.0 0.00 0.00 0.00 100 1009.4
20260502033415 76 177 0.0 0.0 0.00 0.00 0.00 100 1009.4
20260502032853 76 177 0.0 3.0 0.00 0.00 0.00 100 1009.4
20260502032353 77 177 0.0 4.0 0.00 0.00 0.00 100 1009.4
20260502031840 77 184 2.0 4.0 0.00 0.00 0.00 100 1009.4
20260502031340 77 181 3.0 4.0 0.00 0.00 0.00 100 1009.4
20260502030839 78 206 0.0 6.0 0.00 0.00 0.00 100 1009.4
20260502030318 79 240 2.0 6.0 0.00 0.00 0.00 100 1009.4
20260502025818 78 240 3.0 5.0 0.00 0.00 0.00 100 1009.4
20260502025317 78 232 2.0 5.0 0.00 0.00 0.00 100 1009.4
20260502025046 78 262 0.0 4.0 0.00 0.00 0.00 100 1009.4
20260502024308 79 203 0.0 4.0 0.00 0.00 0.00 100 1009.4
20260502024029 79 203 1.0 6.0 0.00 0.00 0.00 100 1009.4
20260502023241 79 209 3.0 6.0 0.00 0.00 0.00 100 1009.4
20260502022742 80 199 4.0 6.0 0.00 0.00 0.00 100 1009.4
20260502022241 80 195 3.0 6.0 0.00 0.00 0.00 100 1009.4
20260502021740 80 241 4.0 6.0 0.00 0.00 0.00 100 1009.4
20260502021458 81 213 4.0 6.0 0.00 0.00 0.00 100 1009.4
20260502020737 82 206 3.0 7.0 0.00 0.00 0.00 100 1009.4
20260502020237 81 202 3.0 7.0 0.00 0.00 0.00 100 1009.4
20260502015736 82 246 5.0 9.0 0.00 0.00 0.00 100 1009.4
20260502015235 83 248 7.0 9.0 0.00 0.00 0.00 100 1009.4
20260502014735 83 267 4.0 9.0 0.00 0.00 0.00 100 1009.4
20260502014234 83 254 6.0 12.0 0.00 0.00 0.00 100 1009.4
20260502013733 83 229 8.0 12.0 0.00 0.00 0.00 100 1009.4
20260502012733 83 233 7.0 11.0 0.00 0.00 0.00 100 1009.4
20260502012231 83 233 5.0 12.0 0.00 0.00 0.00 100 1009.4
20260502011731 83 279 9.0 12.0 0.00 0.00 0.00 100 1009.4
20260502011231 84 243 6.0 11.0 0.00 0.00 0.00 100 1009.4
20260502010730 85 253 6.0 11.0 0.00 0.00 0.00 100 1009.4
20260502010454 85 240 6.0 14.0 0.00 0.00 0.00 100 1009.4
20260502005728 84 250 5.0 14.0 0.00 0.00 0.00 100 1009.4
20260502005228 85 239 8.0 12.0 0.00 0.00 0.00 100 1009.4
20260502004727 85 237 4.0 12.0 0.00 0.00 0.00 100 1009.4
20260502004449 85 246 7.0 11.0 0.00 0.00 0.00 100 1009.4
20260502003726 85 261 6.0 12.0 0.00 0.00 0.00 100 1009.4
20260502003226 85 322 4.0 12.0 0.00 0.00 0.00 100 1009.4
20260502002725 85 268 4.0 8.0 0.00 0.00 0.00 100 1009.4
20260502002225 85 302 3.0 10.0 0.00 0.00 0.00 100 1009.4
20260502001724 86 216 5.0 11.0 0.00 0.00 0.00 100 1009.4
20260502001223 86 340 7.0 11.0 0.00 0.00 0.00 100 1009.4
20260502000723 85 240 5.0 12.0 0.00 0.00 0.00 100 1009.4
20260502000222 85 275 9.0 12.0 0.00 0.00 0.00 100 1009.4
20260501235721 86 230 8.0 13.0 0.00 0.00 0.00 100 1009.4
20260501235221 86 253 6.0 13.0 0.00 0.00 0.00 100 1009.4
20260501234719 86 300 6.0 10.0 0.00 0.00 0.00 100 1009.4
20260501234220 85 253 3.0 10.0 0.00 0.00 0.00 100 1009.4
20260501233719 85 140 0.0 13.0 0.00 0.00 0.00 100 1009.4
20260501233218 85 277 9.0 14.0 0.00 0.00 0.00 100 1009.4
20260501232718 85 254 10.0 14.0 0.00 0.00 0.00 100 1009.4
20260501232217 86 253 11.0 14.0 0.00 0.00 0.00 100 1009.4
20260501231716 85 247 7.0 12.0 0.00 0.00 0.00 100 1009.4
20260501231216 85 258 8.0 15.0 0.00 0.00 0.00 100 1009.4
20260501230715 85 253 10.0 15.0 0.00 0.00 0.00 100 1009.4
20260501230214 85 281 11.0 15.0 0.00 0.00 0.00 100 1009.4
20260501225714 86 258 2.0 14.0 0.00 0.00 0.00 100 1009.4
20260501225435 85 354 7.0 14.0 0.00 0.00 0.00 100 1009.4
20260501224712 85 300 8.0 14.0 0.00 0.00 0.00 100 1009.4
20260501224212 85 285 5.0 15.0 0.00 0.00 0.00 100 1009.4
20260501223709 86 258 4.0 15.0 0.00 0.00 0.00 100 1009.4
20260501223209 87 233 10.0 15.0 0.00 0.00 0.00 100 1009.4
20260501222709 85 278 9.0 14.0 0.00 0.00 0.00 100 1009.4
20260501222208 86 288 6.0 12.0 0.00 0.00 0.00 100 1009.4
20260501221707 87 255 6.0 17.0 0.00 0.00 0.00 100 1009.4
20260501221207 86 258 7.0 17.0 0.00 0.00 0.00 100 1009.4
20260501220922 85 288 9.0 16.0 0.00 0.00 0.00 100 1009.4
20260501215922 86 248 3.0 15.0 0.00 0.00 0.00 100 1009.4
20260501215201 85 275 9.0 15.0 0.00 0.00 0.00 100 1009.4
20260501214701 86 261 10.0 15.0 0.00 0.00 0.00 100 1009.4